When you browse on this site, cookies collect data to enhance your experience and personalize the content and advertising you see.
Visit our Privacy Policy to learn more. By continuing to use the site, you agree to this use of cookies and data.
  • In Hungary
  • List of Countries
  • For 7 days
  • Water Temperature
  • Weather Map
  • News
  • Weather Widgets
  • user-avatar
    Login

    Hourly Weather Khampho

    Today, 12 December, Thursday

    Time Temperature Precipitation Wind Pressure Humidity
    00:00 +16°C° 0 mm 2 mps 740 mmHg 92%
    01:00 +16°C° 0 mm 2 mps 740 mmHg 94%
    02:00 +16°C° 0 mm 2 mps 740 mmHg 95%
    03:00 +15°C° 0 mm 2 mps 740 mmHg 96%
    04:00 +15°C° 0 mm 2 mps 739 mmHg 97%
    05:00 +16°C° 0 mm 2 mps 740 mmHg 95%
    06:00 +16°C° 0 mm 2 mps 740 mmHg 94%
    07:00 +17°C° 0 mm 2 mps 741 mmHg 91%
    08:00 +20°C° 0 mm 2 mps 741 mmHg 79%
    09:00 +24°C° 0 mm 3 mps 742 mmHg 67%
    10:00 +27°C° 0 mm 3 mps 742 mmHg 55%
    11:00 +28°C° 0 mm 3 mps 741 mmHg 50%
    12:00 +29°C° 0 mm 4 mps 741 mmHg 46%
    13:00 +30°C° 0 mm 4 mps 740 mmHg 42%
    14:00 +30°C° 0 mm 4 mps 740 mmHg 44%
    15:00 +29°C° 0 mm 4 mps 739 mmHg 47%
    16:00 +28°C° 0 mm 4 mps 739 mmHg 49%
    17:00 +26°C° 0 mm 4 mps 739 mmHg 59%
    18:00 +24°C° 0 mm 3 mps 739 mmHg 68%
    19:00 +20°C° 0 mm 3 mps 740 mmHg 77%
    20:00 +20°C° 0 mm 3 mps 740 mmHg 81%
    21:00 +19°C° 0 mm 3 mps 740 mmHg 84%
    22:00 +18°C° 0 mm 3 mps 741 mmHg 88%
    23:00 +18°C° 0 mm 3 mps 740 mmHg 89%

    Tomorrow, 13 December, Friday

    Time Temperature Precipitation Wind Pressure Humidity
    00:00 +18°C° 0 mm 2 mps 740 mmHg 91%
    01:00 +17°C° 0 mm 2 mps 740 mmHg 93%
    02:00 +17°C° 0 mm 2 mps 740 mmHg 94%
    03:00 +17°C° 0 mm 2 mps 740 mmHg 95%
    04:00 +17°C° 0 mm 2 mps 740 mmHg 95%
    05:00 +18°C° 0 mm 2 mps 740 mmHg 94%
    06:00 +18°C° 0 mm 2 mps 741 mmHg 93%
    07:00 +19°C° 0 mm 1 mps 742 mmHg 91%
    08:00 +21°C° 0 mm 2 mps 742 mmHg 79%
    09:00 +25°C° 0 mm 3 mps 742 mmHg 67%
    10:00 +27°C° 0 mm 4 mps 743 mmHg 55%
    11:00 +29°C° 0 mm 4 mps 742 mmHg 51%
    12:00 +30°C° 0 mm 4 mps 741 mmHg 46%
    13:00 +32°C° 0 mm 4 mps 741 mmHg 42%
    14:00 +30°C° 0 mm 4 mps 740 mmHg 45%
    15:00 +29°C° 0 mm 4 mps 740 mmHg 47%
    16:00 +28°C° 0 mm 4 mps 740 mmHg 50%
    17:00 +26°C° 0 mm 4 mps 740 mmHg 56%
    18:00 +24°C° 0 mm 3 mps 740 mmHg 63%
    19:00 +21°C° 0 mm 3 mps 741 mmHg 70%
    20:00 +20°C° 0 mm 3 mps 741 mmHg 76%
    21:00 +20°C° 0 mm 3 mps 741 mmHg 82%
    22:00 +19°C° 0 mm 2 mps 742 mmHg 89%
    23:00 +19°C° 0 mm 2 mps 741 mmHg 90%

    Day after tomorrow, 14 December, Saturday

    Time Temperature Precipitation Wind Pressure Humidity
    00:00 +19°C° 0 mm 2 mps 741 mmHg 90%
    01:00 +19°C° 0 mm 2 mps 741 mmHg 91%
    02:00 +18°C° 0 mm 2 mps 741 mmHg 93%
    03:00 +18°C° 0 mm 2 mps 740 mmHg 94%
    04:00 +18°C° 0 mm 2 mps 740 mmHg 96%
    05:00 +18°C° 0 mm 2 mps 740 mmHg 94%
    06:00 +19°C° 0 mm 2 mps 741 mmHg 93%
    07:00 +19°C° 0 mm 2 mps 741 mmHg 92%
    08:00 +23°C° 0 mm 2 mps 742 mmHg 80%
    09:00 +26°C° 0 mm 3 mps 742 mmHg 67%
    10:00 +29°C° 0 mm 4 mps 742 mmHg 55%
    11:00 +30°C° 0 mm 4 mps 741 mmHg 52%
    12:00 +32°C° 0 mm 4 mps 741 mmHg 49%
    13:00 +33°C° 0 mm 4 mps 740 mmHg 46%
    14:00 +32°C° 0 mm 4 mps 739 mmHg 48%
    15:00 +30°C° 0 mm 4 mps 739 mmHg 51%
    16:00 +30°C° 0 mm 4 mps 738 mmHg 53%
    17:00 +27°C° 0 mm 4 mps 739 mmHg 62%
    18:00 +25°C° 0 mm 3 mps 739 mmHg 70%
    19:00 +22°C° 0 mm 3 mps 739 mmHg 78%
    20:00 +22°C° 0 mm 3 mps 740 mmHg 81%
    21:00 +21°C° 0 mm 3 mps 740 mmHg 85%
    22:00 +20°C° 0 mm 2 mps 740 mmHg 89%
    23:00 +20°C° 0 mm 2 mps 740 mmHg 90%

    15 December, Sunday

    Time Temperature Precipitation Wind Pressure Humidity
    00:00 +20°C° 0 mm 2 mps 740 mmHg 91%
    01:00 +19°C° 0 mm 2 mps 740 mmHg 92%
    02:00 +19°C° 0 mm 2 mps 739 mmHg 93%
    03:00 +19°C° 0 mm 2 mps 739 mmHg 94%
    04:00 +18°C° 0 mm 2 mps 739 mmHg 95%
    05:00 +19°C° 0 mm 2 mps 739 mmHg 94%
    06:00 +19°C° 0 mm 2 mps 739 mmHg 93%
    07:00 +19°C° 0 mm 2 mps 740 mmHg 92%
    08:00 +23°C° 0 mm 2 mps 740 mmHg 80%
    09:00 +26°C° 0 mm 3 mps 740 mmHg 67%
    10:00 +29°C° 0 mm 3 mps 741 mmHg 55%
    11:00 +30°C° 0 mm 3 mps 740 mmHg 50%
    12:00 +31°C° 0 mm 3 mps 739 mmHg 45%
    13:00 +34°C° 0 mm 3 mps 739 mmHg 40%
    14:00 +33°C° 0 mm 4 mps 738 mmHg 43%
    15:00 +32°C° 0 mm 4 mps 738 mmHg 46%
    16:00 +30°C° 0 mm 4 mps 738 mmHg 48%
    17:00 +28°C° 0 mm 3 mps 738 mmHg 57%
    18:00 +26°C° 0 mm 3 mps 738 mmHg 66%
    19:00 +24°C° 0 mm 3 mps 738 mmHg 75%
    20:00 +22°C° 0 mm 3 mps 739 mmHg 80%
    21:00 +21°C° 0 mm 2 mps 739 mmHg 85%
    22:00 +20°C° 0 mm 2 mps 739 mmHg 89%
    23:00 +20°C° 0 mm 2 mps 739 mmHg 91%

    16 December, Monday

    Time Temperature Precipitation Wind Pressure Humidity
    00:00 +20°C° 0 mm 2 mps 739 mmHg 93%
    01:00 +19°C° 0 mm 2 mps 739 mmHg 94%
    02:00 +19°C° 0 mm 2 mps 738 mmHg 95%
    03:00 +19°C° 0 mm 2 mps 738 mmHg 95%
    04:00 +19°C° 0 mm 2 mps 738 mmHg 96%
    05:00 +19°C° 0 mm 2 mps 738 mmHg 95%
    06:00 +21°C° 0 mm 1 mps 739 mmHg 94%
    07:00 +21°C° 0 mm 1 mps 739 mmHg 93%
    08:00 +24°C° 0 mm 2 mps 739 mmHg 81%
    09:00 +27°C° 0 mm 3 mps 740 mmHg 68%
    10:00 +30°C° 0 mm 3 mps 740 mmHg 55%
    11:00 +31°C° 0 mm 3 mps 739 mmHg 51%
    12:00 +33°C° 0 mm 3 mps 739 mmHg 47%
    13:00 +35°C° 0 mm 3 mps 738 mmHg 43%
    14:00 +34°C° 0 mm 4 mps 738 mmHg 46%
    15:00 +33°C° 0 mm 4 mps 737 mmHg 49%
    16:00 +32°C° 0 mm 4 mps 737 mmHg 52%
    17:00 +29°C° 0 mm 4 mps 737 mmHg 60%
    18:00 +27°C° 0 mm 3 mps 738 mmHg 69%
    19:00 +25°C° 0 mm 3 mps 738 mmHg 77%
    20:00 +24°C° 0 mm 2 mps 738 mmHg 81%
    21:00 +24°C° 0 mm 2 mps 739 mmHg 84%
    22:00 +23°C° 0 mm 2 mps 739 mmHg 88%
    23:00 +21°C° 0 mm 2 mps 739 mmHg 90%

    17 December, Tuesday

    Time Temperature Precipitation Wind Pressure Humidity
    00:00 +21°C° 0 mm 2 mps 738 mmHg 92%
    01:00 +21°C° 0 mm 2 mps 738 mmHg 93%
    02:00 +21°C° 0 mm 2 mps 738 mmHg 94%
    03:00 +20°C° 0 mm 2 mps 738 mmHg 94%
    04:00 +20°C° 0 mm 2 mps 738 mmHg 95%
    05:00 +21°C° 0 mm 1 mps 738 mmHg 94%
    06:00 +21°C° 0 mm 1 mps 738 mmHg 93%
    07:00 +22°C° 0 mm 1 mps 739 mmHg 92%
    08:00 +24°C° 0 mm 2 mps 739 mmHg 79%
    09:00 +27°C° 0 mm 2 mps 739 mmHg 67%
    10:00 +30°C° 0 mm 3 mps 740 mmHg 54%
    11:00 +33°C° 0 mm 3 mps 739 mmHg 49%
    12:00 +34°C° 0 mm 3 mps 738 mmHg 45%
    13:00 +35°C° 0 mm 3 mps 738 mmHg 40%
    14:00 +35°C° 0 mm 3 mps 737 mmHg 42%
    15:00 +34°C° 0 mm 3 mps 737 mmHg 44%
    16:00 +33°C° 0 mm 3 mps 737 mmHg 46%
    17:00 +30°C° 0 mm 3 mps 737 mmHg 55%
    18:00 +28°C° 0 mm 3 mps 737 mmHg 63%
    19:00 +26°C° 0 mm 3 mps 738 mmHg 71%
    20:00 +25°C° 0 mm 3 mps 738 mmHg 76%
    21:00 +24°C° 0 mm 3 mps 738 mmHg 81%
    22:00 +23°C° 0 mm 2 mps 739 mmHg 86%
    23:00 +21°C° 0 mm 2 mps 739 mmHg 88%
    Show more